Starlink 6326

operational
NORAD ID: 56787 Int'l Des: 2023-078 Owner: SPXS Country: US Constellation: starlink
LEOCIRCULAR

关于 Starlink 6326

正在加载描述...

实时位置

正在加载3D地球...

即将过境

高度历史

Altitude vs Time

uPlot chart will show altitude changes over time

两行轨道根数

1 56787U 23078W 25353.76299750 .00000782 00000-0 73316-4 0 9997
2 56787 69.9986 165.8850 0002613 280.1556 79.9308 14.98331155141208
Epoch: Dec 19, 2025 • Age: 6 hours

当前状态

高度 593.8 km
速度 7.56 km/s
星下点 -63.12°S, 24.78°E
发射日期 May 31, 2023
运行时间 2.5 years
类型 internet

技术详情

分类 Payload
质量 305.00 kg
干质量 290.00 kg
总质量 305.00 kg
长度 0.20 m
直径 2.80 m
跨度 9.00 m
形状 Box + pan
制造商 SPXS
平台类型 Starlink
阶段状态 In Orbit
所有者/国家 SPXS/US

大型星座

Loading constellations...